Regional Weather Roundup
Issued by NWS Columbia, SC

Home | Current Version | Previous Version | Text Only | Print | Product List | Glossary On
Versions: 1 2 3 4 5 6 7 8 9 10 11 12 13 14 15 16 17 18 19 20 21 22 23 24 25 26 27 28 29 30 31 32 33 34 35 36 37 38 39 40 41 42 43 44 45 46 47 48 49 50
000
ASUS42 KCAE 061610
RWRCAE
REGIONAL WEATHER ROUNDUP
NATIONAL WEATHER SERVICE COLUMBIA SC
1200 PM EDT WED MAY 06 2015

NOTE: "FAIR" INDICATES FEW OR NO CLOUDS BELOW 12,000 FEET WITH NO
SIGNIFICANT WEATHER AND/OR OBSTRUCTIONS TO VISIBILITY.

NOT ALL STATIONS ARE QUALITY CONTROLLED BY THE NATIONAL
WEATHER SERVICE. USE DATA WITH CAUTION...ESPECIALLY
DEWPOINT OBSERVATIONS.

SCZ001>056-GAZ040-063>065-077-061700-
...UPSTATE SOUTH CAROLINA...

CITY           SKY/WX    TMP DP  RH WIND       PRES   REMARKS
ANDERSON       MOSUNNY   77  57  50 VRB3      30.22F
LIBERTY        MOSUNNY   78  56  46 CALM      30.23S
SPARTANBURG    SUNNY     79  55  44 SE5       30.22F
CLEMSON        MOSUNNY   77  52  41 CALM      30.24S
GREENVILLE     MOSUNNY   79  54  41 CALM      30.24F
GREENWOOD      MOSUNNY   75  56  51 E5        30.24F
GREER          MOSUNNY   79  57  46 N7        30.22F
ROCK HILL      MOSUNNY   77  56  48 NE5       30.23F
CHESTER        MOSUNNY   77  54  44 E3        30.24S
LAURENS        MOSUNNY   75  63  64 N5        30.23S


...CENTRAL SOUTH CAROLINA...

CITY           SKY/WX    TMP DP  RH WIND       PRES   REMARKS
COLUMBIA APT   PTSUNNY   78  54  43 N10       30.20F
COLUMBIA OWENS PTSUNNY   76  55  48 E5        30.22F
DARLINGTON     PTSUNNY   79  55  44 E12       30.22F
FLORENCE       PTSUNNY   76  54  46 E9        30.21F
MCENTIRE ANGB  PTSUNNY   75  59  56 NE9       30.21F
ORANGEBURG     PTSUNNY   77  51  40 NE12      30.20F
SUMTER SHAW    PTSUNNY   75  57  53 E10       30.19F
NEWBERRY       PTSUNNY   73  55  53 CALM      30.25F
AIKEN          FAIR      73  52  46 NE9       30.25S
BARNWELL       FAIR      75  54  46 NE9       30.21S
MANNING        FAIR      75  48  38 NE8       30.20S
CAMDEN         FAIR      75  55  50 NE8       30.22S
LANCASTER      PTSUNNY   77  57  50 N6        30.23S
WINNSBORO      PTSUNNY   77  55  47 NE7       30.22S


...EASTERN AND COASTAL SOUTH CAROLINA...

CITY           SKY/WX    TMP DP  RH WIND       PRES   REMARKS
MYRTLE BEACH   MOSUNNY   75  57  53 E13G18    30.21S
N MYRTLE BCH   MOSUNNY   76  57  51 E9        30.19F
CONWAY         PTSUNNY   77  57  50 NE10      30.19F
MARION         FAIR      77  54  44 NE12      30.21F
HARTSVILLE     FAIR      77  52  41 E10       30.22S
FLORENCE       PTSUNNY   76  54  46 E9        30.21F
DARLINGTON     PTSUNNY   79  55  44 E12       30.22F
CHARLESTON APT MOSUNNY   79  58  48 NE15G23   30.17S
MOUNT PLEASANT FAIR      79  63  57 MISG      30.16F
WALTERBORO     PTSUNNY   75  57  53 NE13      30.19S
BEAUFORT       PTSUNNY   78  63  59 NE13      30.17S


...EASTERN GEORGIA...

CITY           SKY/WX    TMP DP  RH WIND       PRES   REMARKS
AUGUSTA BUSH F PTSUNNY   77  54  44 NE10      30.20F
AUGUSTA DANIEL PTSUNNY   78  54  43 NE9       30.21F
THOMSON        MOSUNNY   77  61  57 NE6       30.25F
WASHINGTON     FAIR      77  64  65 NE3       30.22F
CLAXTON        FAIR      73  61  64 E12       30.18S
SYLVANIA       PTSUNNY   75  62  64 E7        30.19F
STATESBORO       N/A     74  61  65 NE5       30.19S
SAVANNAH       CLOUDY    76  62  62 E10       30.17S


...SOUTHERN NORTH CAROLINA...

CITY           SKY/WX    TMP DP  RH WIND       PRES   REMARKS
CHARLOTTE      MOSUNNY   78  54  43 CALM      30.23F
MONROE         PTSUNNY   76  55  48 CALM      30.22F
WADESBORO      PTSUNNY   76  53  45 NE5       30.22F
ROCKINGHAM     PTSUNNY   75  56  51 NE5       30.22F
RUTHERFORDTON  SUNNY     76  58  53 CALM      30.24F
ASHEVILLE      MOSUNNY   74  49  41 S5        30.27F

$$



USA.gov is the U.S. government's official web portal to all federal, state and local government web resources and services.